COSMOS 2251 DEB, 33905

Orbit data source: Space-Track

COSMOS 2251 DEB, 33905 is space debris in LEO originally from a launch on Wed, 16 Jun 1993 UTC launched from the Plesetsk Missile And Space Complex (PKMTR). The debris from Iridium 33, an American commercial communications satellite, has been tracked extensively since its accidental collision with the defunct Russian satellite Cosmos 2251 in 2009. This event, occurring at high speed in low Earth orbit (LEO), generated thousands of pieces of space debris, significantly increasing the risk of further collisions. The Iridium 33 debris cloud has impacted space traffic management and orbital debris mitigation strategies, making it a subject of ongoing study in space situational awareness.

Loading next visibility...
Identifier
33905, 1993-036DJ
Orbit
LEO
Country
Flag of CISCIS
Related business
Manufacturer
Unknown
Mission
Spacecraft
Bus & Motor
Unknown
Mass
Unknown
Launch date (UTC)
1993-06-16 (33 years ago)
Launch vehicle
Unknown
Launch site
Plesetsk Missile And Space Complex (PKMTR)
Object type
Payload
Rocket body
Debris
Shape & HBR
Unknown shape, 0.1 m
Radar Cross Section
Small (<0.1 m²)

Expand to show TLE details & history
Last TLE update: 1 day ago

TLE from 1 day ago
0 COSMOS 2251 DEB
1 33905U 93036DJ  26105.95555131  .00000835  00000-0  29194-3 0  9993
2 33905  73.8842  86.6463 0058443 306.7495  73.3418 14.35859980894701
Epoch: 2026-04-15T22:55Z
TLE epoch observation values (Epoch: 2026-04-15T22:55:59.633Z)
Latitude
19.89349°
Longitude
-95.49278°
Altitude
762.631 km
Speed
7.481 km/s
True Right ascension
06h 10m 27s
True Declination
19° 47' 02"
Sunlit
Object was in daylight at epoch
Visualization orbit readout
Latitude
Unknown
Longitude
Unknown
Altitude
Unknown
Speed
Unknown
Apparent Right ascension
Unknown
Apparent Declination
Unknown
Sunlit
N/A
Visualization observer readout
Local Sidereal Time
10:41:57
Azimuth
Unknown
Elevation
Unknown
Doppler factor
Unknown
Orbital elements
Apogee altitude
811.622 km
Perigee altitude
728.072 km
Semi-major axis
7,147.984 km
Eccentricity
0.00584
Inclination
73.8842°
RAAN
86.6463°
Arg. of periapsis
306.7495°
True anomaly
73.98473°
Mean anomaly
73.3418°
Eccentric anomaly
73.66313°
Mean motion
3.59143 °/min
Orbital period
100.24 mins
BSTAR
0.00029194
Loading maneuver chart data...
Computing Atmospheric mass density...

Documentation

Showing up to 5 results
|